[[{"header":{"parameterUnit":"m.s-1","parameterCategory":2,"la1":30.2991,"la2":30.254,"lo1":-89.0895,"lo2":-89.0444,"dy":0.0017,"dx":0.0017,"nx":28,"ny":28,"refTime":"2023-10-05T21:00:00:Z","depth":"0","parameterNumber":2,"parameterNumberName":"U-component_of_CURRENTS"},"data":[0,0,0,0,0,0,0,0,0,0,0,0,0,0,0,0,0,0,0,0,0,0,0,0,0,0,0,0,0,0,0,0,0,0,0,0,0,0,0,0,0,0,0,0,0,0,0,0,0,0,0,0,0,0,0,0,0,0,0.3891,0.3893,0,0.4128,0.4131,0.4135,0.425,0.4249,0.4248,0.4248,0.4098,0.4095,0.4091,0,0,0,0,0,0,0,0,0,0,0,0,0,0.4037,0.4031,0.3891,0.3893,0.3895,0.4128,0.4132,0.4135,0.425,0.4249,0.4248,0.4248,0.4099,0.4095,0.4091,0,0,0,0,0,0,0,0,0,0,0,0,0,0.4098,0.4029,0.389,0.3976,0.3986,0.4127,0.4132,0.4136,0.425,0.4249,0.4248,0.4247,0.41,0.4095,0.409,0.4077,0,0,0.4075,0.4072,0,0,0,0,0,0,0,0,0.4094,0.4093,0.3961,0.397,0.3981,0.4153,0.4129,0.4095,0.425,0.4156,0.4248,0.4247,0.4077,0.4074,0.4135,0.407,0.4063,0.4074,0.4071,0.4069,0.4067,0,0,0,0,0,0,0,0.4089,0.4086,0.3991,0.3964,0.3976,0.4174,0.4178,0.4127,0.4116,0.4164,0.4172,0.4189,0.4081,0.414,0.4131,0.4061,0.4074,0.407,0.4067,0.4065,0.3966,0.3966,0,0,0,0,0,0,0.402,0.4078,0.3983,0.3997,0.403,0.417,0.4175,0.4104,0.4125,0.4129,0.4189,0.4193,0.4149,0.4137,0.4125,0.4071,0.4069,0.4064,0.4061,0.3965,0.3966,0.3966,0,0,0,0,0,0,0.4021,0.4006,0.3973,0.4046,0.4054,0.4163,0.4087,0.4109,0.4179,0.4148,0.4145,0.4236,0.4148,0.4132,0.408,0.4066,0.4062,0.4057,0.3965,0.3965,0.3966,0.3983,0,0,0,0,0,0,0.4023,0.4003,0.3952,0.4036,0.4047,0.4064,0.4088,0.4114,0.4187,0.4195,0.4185,0.4172,0.4146,0.4088,0.4075,0.4058,0.4053,0.3964,0.3965,0.3966,0.3982,0.3985,0.3987,0,0,0,0,0,0.4026,0.3971,0.3945,0.3937,0.396,0.4064,0.4091,0.4175,0.419,0.4233,0.4208,0.4173,0.4085,0.4084,0.4069,0.405,0.3964,0.3965,0.3966,0.3981,0.3984,0.3987,0,0,0,0,0,0,0.407,0.3979,0.3953,0.3884,0.3962,0.4081,0.4128,0.4181,0.4214,0.4192,0.417,0.4155,0.4103,0.4081,0.4082,0.4029,0.4021,0.4019,0.4039,0.4041,0.4043,0.4065,0.4049,0,0,0,0,0,0.4028,0.3939,0.3946,0.3922,0.3924,0.4024,0.408,0.4128,0.4165,0.4186,0.4174,0.4141,0.4101,0.4073,0.4037,0.4001,0.401,0.3985,0.3987,0.3989,0.4,0.4017,0.4022,0.3969,0.3969,0.3969,0,0,0.4061,0.3996,0.396,0.3924,0.3977,0.4011,0.4058,0.4129,0.4163,0.4146,0.4164,0.4135,0.4092,0.4059,0.4034,0.4033,0.4008,0.399,0.3992,0.4002,0.4018,0.4023,0.4028,0.397,0.397,0.397,0,0,0.411,0.3993,0.3943,0.3967,0.3995,0.4032,0.4043,0.4122,0.4146,0.4162,0.4144,0.4123,0.408,0.4062,0.4039,0.4032,0.4015,0.4011,0.4037,0.4053,0.4058,0.4062,0.4079,0.4085,0.4017,0.4017,0.4017,0,0.4148,0.4042,0.3987,0.3973,0.3986,0.4027,0.4044,0.4087,0.4155,0.4151,0.4153,0.4131,0.4089,0.4056,0.4059,0.4035,0.4044,0.4026,0.4056,0.4061,0.4065,0.4081,0.4087,0.4018,0.4018,0.4017,0.4017,0,0.4164,0.4091,0.4087,0.4012,0.4049,0.4067,0.4079,0.4104,0.4115,0.4153,0.4134,0.4116,0.4108,0.4091,0.4067,0.4067,0.4064,0.4053,0.405,0.4071,0.4087,0.4093,0.4019,0.4019,0.4018,0.4018,0,0,0.4165,0.4087,0.4083,0.4042,0.4036,0.4065,0.4081,0.4094,0.4097,0.4139,0.4153,0.4121,0.413,0.4108,0.4085,0.4105,0.4134,0.4094,0.4094,0.4112,0.4175,0.3961,0.3947,0.4127,0.4128,0.4129,0.4175,0,0.4176,0.4121,0.4095,0.409,0.4041,0.4056,0.4076,0.4103,0.4113,0.4133,0.4128,0.4125,0.4127,0.4116,0.4139,0.4134,0.4151,0.4123,0.4151,0.4152,0.396,0.3946,0.3752,0.3756,0.418,0.4181,0.4182,0,0.4138,0.4096,0.4056,0.4023,0.401,0.4038,0.4025,0.4058,0.4087,0.4097,0.4122,0.4126,0.4155,0.4149,0.4197,0.4181,0.4178,0.4186,0.4188,0.3986,0.3947,0.3804,0.3751,0.3712,0.4191,0.419,0.419,0,0.4055,0.4045,0.3988,0.3978,0.3975,0.3977,0.4006,0.4041,0.404,0.4083,0.4094,0.4139,0.415,0.419,0.4186,0.4208,0.4221,0.4254,0.4065,0.4052,0.3889,0.3856,0.3797,0.4276,0.4276,0.4276,0.4276,0,0.3949,0.3913,0.3949,0.3892,0.3872,0.3925,0.3911,0.3945,0.3998,0.3989,0.4071,0.4074,0.4161,0.4166,0.4189,0.4116,0.4224,0.4061,0.4038,0.3885,0.3853,0.3811,0.3805,0.4277,0.4277,0.4277,0.4276,0,0.3794,0.3809,0.3749,0.3776,0.3792,0.3779,0.3839,0.3843,0.3922,0.392,0.3936,0.4032,0.4056,0.4087,0.4131,0.4078,0.3924,0.399,0.379,0.3739,0.3515,0.3515,0.3272,0.3183,0.3834,0.3829,0.3825,0,0.3671,0.3625,0.3646,0.3634,0.3632,0.3653,0.3666,0.3764,0.3778,0.3875,0.3862,0.3909,0.3878,0.3857,0.3794,0.3754,0.3719,0.3522,0.3511,0.3448,0.3438,0.3343,0.3284,0.3336,0.3328,0.3321,0.3316,0,0.3455,0.3489,0.3462,0.3455,0.346,0.346,0.3503,0.3504,0.3617,0.3627,0.3629,0.3622,0.3605,0.3462,0.3384,0.3353,0.3331,0.338,0.3387,0.3073,0.2899,0.282,0.3384,0.3257,0.3263,0.3267,0.327,0.3273,0.3322,0.3274,0.3274,0.326,0.3273,0.3251,0.3181,0.3252,0.323,0.3189,0.3325,0.3227,0.3201,0.3076,0.3015,0.2823,0.2901,0.276,0.2784,0.271,0.253,0.2927,0.271,0.2712,0.2715,0.2717,0.2719,0,0.3093,0.3086,0.3083,0.303,0.2977,0.3052,0.3038,0.2943,0.2836,0.2886,0.2819,0.2734,0.2589,0.2583,0.2418,0.228,0.2224,0.2231,0.2141,0.2134,0.2563,0.2447,0.2072,0.2072,0.2072,0.2072,0.2072,0.2072,0.2953,0.2876,0.2886,0.2735,0.2714,0.2551,0.2495,0.2412,0.2399,0.2262,0.2191,0.2206,0.2299,0.2195,0.2033,0.1971,0.1892,0.1698,0.1798,0.2212,0.2268,0.2321,0.2213,0.1795,0.1794,0.1272,0.1268,0.1265]},{"header":{"parameterUnit":"m.s-1","parameterCategory":2,"la1":30.2991,"la2":30.254,"lo1":-89.0895,"lo2":-89.0444,"dy":0.0017,"dx":0.0017,"nx":28,"ny":28,"refTime":"2023-10-05T21:00:00:Z","depth":"0","parameterNumber":3,"parameterNumberName":"V-component_of_CURRENTS"},"data":[0,0,0,0,0,0,0,0,0,0,0,0,0,0,0,0,0,0,0,0,0,0,0,0,0,0,0,0,0,0,0,0,0,0,0,0,0,0,0,0,0,0,0,0,0,0,0,0,0,0,0,0,0,0,0,0,0,0,-0.0317,-0.0319,0,-0.0434,-0.0435,-0.0436,-0.0462,-0.0462,-0.0462,-0.0461,-0.0415,-0.0414,-0.0413,0,0,0,0,0,0,0,0,0,0,0,0,0,-0.0388,-0.0384,-0.0317,-0.0319,-0.0321,-0.0434,-0.0435,-0.0436,-0.0463,-0.0462,-0.0462,-0.0461,-0.0415,-0.0414,-0.0413,0,0,0,0,0,0,0,0,0,0,0,0,0,-0.0411,-0.0383,-0.0317,-0.0351,-0.0356,-0.0434,-0.0435,-0.0437,-0.0463,-0.0462,-0.0462,-0.0461,-0.0416,-0.0415,-0.0413,-0.0416,0,0,-0.0409,-0.0409,0,0,0,0,0,0,0,0,-0.0409,-0.0407,-0.0344,-0.0349,-0.0355,-0.0438,-0.0444,-0.0423,-0.0463,-0.0417,-0.0461,-0.0461,-0.0411,-0.041,-0.0429,-0.0414,-0.0412,-0.0409,-0.0408,-0.0408,-0.0407,0,0,0,0,0,0,0,-0.0407,-0.0404,-0.0358,-0.0347,-0.0353,-0.0455,-0.0454,-0.0442,-0.0409,-0.0421,-0.0424,-0.0445,-0.0412,-0.043,-0.0427,-0.0411,-0.0409,-0.0408,-0.0407,-0.0407,-0.0415,-0.0415,0,0,0,0,0,0,-0.0388,-0.04,-0.0355,-0.0362,-0.0387,-0.0453,-0.0452,-0.0407,-0.0413,-0.0416,-0.0446,-0.0446,-0.0433,-0.0429,-0.0426,-0.0433,-0.0408,-0.0406,-0.0406,-0.0414,-0.0415,-0.0416,0,0,0,0,0,0,-0.0388,-0.038,-0.035,-0.0393,-0.0397,-0.0451,-0.0401,-0.041,-0.0426,-0.0434,-0.0433,-0.0453,-0.0432,-0.0427,-0.0415,-0.0431,-0.0406,-0.0405,-0.0412,-0.0414,-0.0415,-0.0444,0,0,0,0,0,0,-0.0388,-0.0377,-0.0352,-0.0389,-0.0394,-0.0398,-0.0403,-0.0413,-0.0443,-0.0444,-0.044,-0.0436,-0.0431,-0.0417,-0.0413,-0.0428,-0.0404,-0.0411,-0.0413,-0.0415,-0.0442,-0.0446,-0.045,0,0,0,0,0,-0.0389,-0.0372,-0.0348,-0.0345,-0.0348,-0.04,-0.0412,-0.0449,-0.0443,-0.0457,-0.0448,-0.0436,-0.0427,-0.0416,-0.0412,-0.0427,-0.041,-0.0412,-0.0415,-0.044,-0.0445,-0.045,0,0,0,0,0,0,-0.0428,-0.0375,-0.0349,-0.0322,-0.0353,-0.0406,-0.0436,-0.0446,-0.0455,-0.0446,-0.0438,-0.0434,-0.0432,-0.0425,-0.0413,-0.0438,-0.0421,-0.0422,-0.0441,-0.0446,-0.045,-0.0431,-0.0402,0,0,0,0,0,-0.0409,-0.0369,-0.0358,-0.0356,-0.0349,-0.0382,-0.0411,-0.0427,-0.0443,-0.0448,-0.0444,-0.0441,-0.0441,-0.0438,-0.0436,-0.044,-0.0406,-0.0452,-0.0456,-0.0459,-0.0443,-0.0436,-0.0438,-0.0423,-0.0423,-0.0423,0,0,-0.0448,-0.0407,-0.0398,-0.0362,-0.0379,-0.0378,-0.0396,-0.0434,-0.0442,-0.0437,-0.044,-0.0447,-0.0444,-0.0456,-0.0456,-0.0449,-0.044,-0.0462,-0.0465,-0.0446,-0.0439,-0.044,-0.0441,-0.0425,-0.0425,-0.0424,0,0,-0.0502,-0.0434,-0.0408,-0.0399,-0.04,-0.0409,-0.0409,-0.0432,-0.044,-0.0445,-0.045,-0.0466,-0.0458,-0.0477,-0.048,-0.0504,-0.0459,-0.0507,-0.0514,-0.0509,-0.0509,-0.0509,-0.0436,-0.0429,-0.0514,-0.0514,-0.0514,0,-0.0543,-0.0471,-0.0434,-0.04,-0.0398,-0.0407,-0.0398,-0.0413,-0.0442,-0.0443,-0.0442,-0.0461,-0.047,-0.0489,-0.0508,-0.0512,-0.0473,-0.0494,-0.0512,-0.0512,-0.0511,-0.0436,-0.0429,-0.0516,-0.0515,-0.0515,-0.0515,0,-0.056,-0.0498,-0.0495,-0.0414,-0.0423,-0.0424,-0.0413,-0.0422,-0.0422,-0.0436,-0.0449,-0.0473,-0.0481,-0.0507,-0.0511,-0.0529,-0.0486,-0.0514,-0.0495,-0.0514,-0.0434,-0.0425,-0.0518,-0.0517,-0.0517,-0.0516,0,0,-0.0623,-0.0515,-0.0505,-0.0449,-0.0409,-0.0413,-0.0415,-0.0411,-0.0396,-0.0433,-0.0421,-0.0474,-0.0485,-0.049,-0.0516,-0.053,-0.0501,-0.052,-0.0519,-0.0435,-0.0426,-0.0375,-0.036,-0.053,-0.053,-0.0529,-0.0358,0,-0.063,-0.0543,-0.0507,-0.0461,-0.04,-0.0392,-0.0388,-0.0396,-0.0394,-0.0385,-0.0426,-0.0418,-0.0477,-0.0472,-0.0505,-0.049,-0.0484,-0.054,-0.0428,-0.0423,-0.0368,-0.0352,-0.0335,-0.0181,-0.035,-0.0348,-0.0347,0,-0.0607,-0.0545,-0.047,-0.0396,-0.0376,-0.0369,-0.0331,-0.0333,-0.0332,-0.0328,-0.035,-0.0359,-0.0379,-0.0425,-0.0414,-0.044,-0.0431,-0.043,-0.0424,-0.0359,-0.0358,-0.0197,-0.0158,-0.0237,-0.0333,-0.0335,-0.0336,0,-0.0579,-0.0506,-0.0433,-0.0403,-0.0339,-0.0328,-0.0321,-0.0313,-0.0276,-0.0277,-0.023,-0.0282,-0.0244,-0.0287,-0.0289,-0.0339,-0.0245,-0.0315,-0.0254,-0.0247,-0.02,-0.0191,-0.0218,-0.0304,-0.0304,-0.0305,-0.0305,0,-0.0519,-0.0464,-0.0407,-0.0349,-0.0289,-0.0284,-0.0226,-0.0226,-0.0195,-0.0107,-0.0185,-0.0105,-0.0206,-0.0169,-0.0225,-0.0178,-0.0188,-0.0225,-0.0207,-0.0207,-0.02,-0.0241,-0.0308,-0.0298,-0.03,-0.0301,-0.0302,0,-0.0441,-0.0404,-0.031,-0.0256,-0.0241,-0.0191,-0.0133,-0.008,-0.0074,0.0047,0.0067,0.0075,0.0133,0.0055,0.0043,-0.0036,-0.0065,-0.0028,0.0016,0.0034,-0.0024,-0.0092,-0.005,-0.0075,0.0065,0.0067,0.0069,0,-0.0368,-0.0302,-0.0223,-0.0162,-0.0124,-0.0064,-0.0004,-0.0003,0.0076,0.0191,0.028,0.0347,0.0443,0.0435,0.0294,0.0236,0.0097,0.0191,0.0057,0.0003,-0.0061,-0.0118,-0.0148,0.0134,0.0136,0.0138,0.0139,0,-0.0219,-0.0198,-0.0127,-0.0012,0.0064,0.0144,0.0225,0.0304,0.0358,0.0474,0.0647,0.0726,0.0709,0.0663,0.054,0.0449,0.0131,0.0227,0.0137,-0.0026,-0.0056,-0.008,0.0035,0.0155,0.0154,0.0152,0.0151,0.0151,-0.0099,-0.0037,0.0059,0.0159,0.0249,0.0372,0.0456,0.0565,0.0728,0.0915,0.0947,0.1092,0.0948,0.0784,0.0637,0.0345,0.0306,0.0229,0.0159,0.0114,0.0048,0.0236,0.0375,0.0375,0.0375,0.0374,0.0374,0,0.0088,0.0132,0.023,0.0363,0.0484,0.0485,0.0637,0.0737,0.0965,0.1129,0.128,0.1323,0.1145,0.0869,0.049,0.0293,0.0169,0.0174,0.0059,0.0033,0.0186,0.0141,0.0276,0.0276,0.0276,0.0276,0.0276,0.0276,0.0211,0.0327,0.0345,0.0567,0.0646,0.0802,0.089,0.1044,0.1175,0.1414,0.1518,0.1575,0.1407,0.0711,0.0257,0.0143,-0.0024,-0.0027,-0.0103,-0.0056,-0.0059,-0.0061,-0.012,-0.0043,-0.0043,-0.0239,-0.0241,-0.0243]}],[{"header":{"parameterUnit":"m.s-1","parameterCategory":2,"la1":30.2991,"la2":30.254,"lo1":-89.0895,"lo2":-89.0444,"dy":0.0017,"dx":0.0017,"nx":28,"ny":28,"refTime":"2023-10-05T21:00:00:Z","depth":"2","parameterNumber":2,"parameterNumberName":"U-component_of_CURRENTS"},"data":[0,0,0,0,0,0,0,0,0,0,0,0,0,0,0,0,0,0,0,0,0,0,0,0,0,0,0,0,0,0,0,0,0,0,0,0,0,0,0,0,0,0,0,0,0,0,0,0,0,0,0,0,0,0,0,0,0,0,0.1971,0.1971,0,0.1941,0.1941,0.1941,0.1898,0.1897,0.1897,0.1896,0.1907,0.1908,0.1909,0,0,0,0,0,0,0,0,0,0,0,0,0,0.2015,0.2014,0.1971,0.1971,0.197,0.1942,0.1941,0.1941,0.1898,0.1897,0.1896,0.1896,0.1906,0.1908,0.1909,0,0,0,0,0,0,0,0,0,0,0,0,0,0.1992,0.2014,0.1971,0.1945,0.1942,0.1942,0.1941,0.1941,0.1899,0.1897,0.1896,0.1895,0.1906,0.1908,0.1909,0.1942,0,0,0.1914,0.1914,0,0,0,0,0,0,0,0,0.1993,0.1991,0.1949,0.1947,0.1944,0.1922,0.196,0.1943,0.1899,0.1916,0.1896,0.1895,0.1916,0.1917,0.1914,0.1943,0.1943,0.1914,0.1915,0.1916,0.1916,0,0,0,0,0,0,0,0.1995,0.1992,0.196,0.1949,0.1946,0.1943,0.1938,0.1957,0.1924,0.1914,0.1911,0.1907,0.1915,0.1913,0.1914,0.1944,0.1914,0.1915,0.1916,0.1917,0.2033,0.2035,0,0,0,0,0,0,0.1997,0.1993,0.1961,0.1959,0.1965,0.1943,0.1938,0.1931,0.1923,0.192,0.1908,0.1905,0.1911,0.1912,0.1914,0.1958,0.1916,0.1917,0.1918,0.2031,0.2034,0.2036,0,0,0,0,0,0,0.1998,0.1995,0.1962,0.1975,0.1971,0.1943,0.1936,0.1931,0.1934,0.1918,0.1916,0.1917,0.191,0.1912,0.1931,0.1958,0.1918,0.1919,0.2029,0.2032,0.2035,0.2043,0,0,0,0,0,0,0.2,0.1995,0.2004,0.1975,0.197,0.1946,0.1937,0.1931,0.1933,0.1929,0.1925,0.1924,0.1909,0.1929,0.1933,0.1959,0.192,0.2026,0.203,0.2034,0.204,0.2046,0.2051,0,0,0,0,0,0.2001,0.1998,0.2005,0.2002,0.1979,0.1945,0.1942,0.192,0.1935,0.1923,0.1935,0.1924,0.1959,0.1932,0.1936,0.1963,0.2024,0.2029,0.2034,0.2037,0.2045,0.2051,0,0,0,0,0,0,0.1996,0.1993,0.1999,0.199,0.1969,0.1937,0.1935,0.1934,0.1937,0.1951,0.1941,0.1941,0.1966,0.1977,0.1948,0.2014,0.1995,0.2001,0.1997,0.2004,0.201,0.2017,0.1922,0,0,0,0,0,0.201,0.2026,0.1998,0.1996,0.1988,0.1975,0.1969,0.1958,0.1951,0.1952,0.1958,0.198,0.1993,0.2005,0.2014,0.2052,0.2069,0.208,0.2086,0.209,0.2103,0.2157,0.2168,0.2052,0.2052,0.2052,0,0,0.2011,0.2011,0.202,0.2001,0.1991,0.1984,0.1967,0.1959,0.1969,0.1958,0.1988,0.1994,0.2006,0.2034,0.205,0.2044,0.2131,0.2097,0.21,0.211,0.2164,0.2175,0.2184,0.2055,0.2055,0.2054,0,0,0.2021,0.2018,0.2039,0.2021,0.2014,0.2002,0.2005,0.1993,0.1998,0.2023,0.2024,0.2043,0.2075,0.2078,0.2087,0.2141,0.2152,0.2162,0.22,0.2253,0.2262,0.227,0.2289,0.2299,0.2172,0.2173,0.2173,0,0.2016,0.2032,0.2033,0.2034,0.2023,0.2015,0.2013,0.202,0.2023,0.2042,0.2035,0.2098,0.2092,0.2135,0.2146,0.215,0.2181,0.2162,0.2257,0.2266,0.2275,0.2292,0.2303,0.2173,0.2173,0.2173,0.2173,0,0.2052,0.2043,0.2042,0.2055,0.205,0.2033,0.2037,0.2056,0.2077,0.2088,0.2138,0.2141,0.2182,0.2185,0.2175,0.2246,0.2248,0.2247,0.2231,0.2287,0.2302,0.2313,0.2175,0.2175,0.2174,0.2174,0,0,0.2055,0.2065,0.2058,0.2055,0.205,0.2042,0.2076,0.2089,0.2124,0.2151,0.22,0.2219,0.2245,0.2259,0.2266,0.2304,0.2366,0.2311,0.2314,0.2313,0.2477,0.238,0.2382,0.2394,0.2397,0.2399,0.2456,0,0.2063,0.2065,0.2079,0.2069,0.2057,0.2063,0.2089,0.2119,0.215,0.2199,0.2233,0.2277,0.227,0.2298,0.2341,0.2363,0.2402,0.235,0.2439,0.2441,0.2334,0.2394,0.2197,0.2224,0.2467,0.2469,0.247,0,0.2085,0.2078,0.208,0.2066,0.2065,0.2077,0.2117,0.2142,0.2211,0.2244,0.2314,0.2345,0.2413,0.2396,0.2487,0.2465,0.2482,0.2489,0.2492,0.2409,0.2365,0.2214,0.2235,0.2489,0.2487,0.2486,0.2485,0,0.2081,0.2065,0.2069,0.2059,0.2065,0.2087,0.2101,0.2163,0.2194,0.2289,0.2335,0.2421,0.2474,0.2529,0.2553,0.2541,0.2637,0.2617,0.2543,0.2535,0.2386,0.2361,0.2686,0.2686,0.2685,0.2685,0.2685,0,0.2058,0.2041,0.2068,0.2055,0.207,0.2092,0.2129,0.2164,0.2235,0.2271,0.2371,0.2421,0.2518,0.2578,0.2592,0.2604,0.2679,0.2561,0.2554,0.2381,0.2356,0.2604,0.2594,0.2687,0.2687,0.2687,0.2686,0,0.2019,0.2038,0.2029,0.2049,0.2064,0.2078,0.2117,0.2137,0.2229,0.2288,0.2325,0.2448,0.2523,0.2589,0.2663,0.2639,0.2656,0.2636,0.2408,0.2372,0.2506,0.2496,0.2567,0.2564,0.2562,0.256,0.2558,0,0.197,0.1979,0.202,0.2027,0.203,0.2057,0.2067,0.213,0.2159,0.228,0.2305,0.2417,0.2463,0.2548,0.2536,0.2551,0.2611,0.2354,0.2283,0.2514,0.25,0.2494,0.2487,0.2088,0.2082,0.2078,0.2075,0,0.1886,0.1938,0.1951,0.1969,0.1983,0.1996,0.2023,0.2039,0.2114,0.2167,0.2231,0.228,0.2368,0.23,0.233,0.2304,0.2336,0.2263,0.2597,0.2139,0.2064,0.205,0.2059,0.2036,0.204,0.2042,0.2045,0.2046,0.1834,0.1829,0.1882,0.1887,0.1913,0.1922,0.1892,0.1933,0.1957,0.1999,0.2092,0.2099,0.2132,0.2081,0.2013,0.1961,0.2124,0.2018,0.2031,0.2049,0.1974,0.1899,0.1824,0.1826,0.1828,0.183,0.1832,0,0.1745,0.1768,0.1777,0.1786,0.1775,0.1831,0.1843,0.1796,0.1773,0.1843,0.1876,0.1733,0.1695,0.1727,0.1593,0.158,0.1567,0.1501,0.1472,0.1512,0.1547,0.1446,0.1156,0.1154,0.1151,0.115,0,0,0.1715,0.1696,0.1699,0.1654,0.166,0.161,0.1598,0.1563,0.1582,0.1543,0.1529,0.1659,0.1697,0.1424,0.1374,0.1242,0.1369,0.1187,0.1734,0.1742,0.1775,0.1853,0.1742,0,0,0,0,0]},{"header":{"parameterUnit":"m.s-1","parameterCategory":2,"la1":30.2991,"la2":30.254,"lo1":-89.0895,"lo2":-89.0444,"dy":0.0017,"dx":0.0017,"nx":28,"ny":28,"refTime":"2023-10-05T21:00:00:Z","depth":"2","parameterNumber":3,"parameterNumberName":"V-component_of_CURRENTS"},"data":[0,0,0,0,0,0,0,0,0,0,0,0,0,0,0,0,0,0,0,0,0,0,0,0,0,0,0,0,0,0,0,0,0,0,0,0,0,0,0,0,0,0,0,0,0,0,0,0,0,0,0,0,0,0,0,0,0,0,0.0394,0.0394,0,0.0405,0.0405,0.0405,0.0404,0.0404,0.0404,0.0404,0.0366,0.0365,0.0364,0,0,0,0,0,0,0,0,0,0,0,0,0,0.0342,0.0343,0.0394,0.0394,0.0395,0.0405,0.0405,0.0405,0.0404,0.0404,0.0404,0.0404,0.0367,0.0365,0.0364,0,0,0,0,0,0,0,0,0,0,0,0,0,0.0357,0.0343,0.0394,0.0398,0.0399,0.0405,0.0405,0.0405,0.0404,0.0404,0.0404,0.0405,0.0367,0.0366,0.0364,0.0349,0,0,0.0359,0.0358,0,0,0,0,0,0,0,0,0.0356,0.0359,0.0397,0.0398,0.0399,0.0406,0.0373,0.0385,0.0404,0.0398,0.0404,0.0405,0.0377,0.0375,0.0372,0.0347,0.0346,0.0358,0.0357,0.0357,0.0356,0,0,0,0,0,0,0,0.0355,0.0358,0.0395,0.0398,0.0399,0.039,0.0392,0.0375,0.0383,0.0399,0.04,0.0406,0.0377,0.0374,0.0371,0.0345,0.0359,0.0357,0.0356,0.0355,0.0316,0.0316,0,0,0,0,0,0,0.0362,0.0357,0.0395,0.0396,0.0382,0.0391,0.0393,0.0401,0.0384,0.0383,0.0406,0.0406,0.0377,0.0373,0.037,0.038,0.0357,0.0355,0.0354,0.0316,0.0316,0.0316,0,0,0,0,0,0,0.0361,0.0366,0.0394,0.0379,0.0383,0.0392,0.04,0.0401,0.0407,0.0391,0.0388,0.0412,0.0377,0.0372,0.0366,0.0378,0.0354,0.0353,0.0316,0.0316,0.0316,0.0382,0,0,0,0,0,0,0.036,0.0365,0.0367,0.038,0.0384,0.0416,0.0401,0.0401,0.0412,0.0412,0.0395,0.0391,0.0377,0.0369,0.0364,0.0375,0.0351,0.0316,0.0316,0.0316,0.038,0.0385,0.0389,0,0,0,0,0,0.0358,0.0374,0.0367,0.0372,0.0389,0.0417,0.0419,0.0423,0.0412,0.0425,0.0407,0.0392,0.0365,0.0367,0.0362,0.0373,0.0316,0.0316,0.0316,0.0378,0.0384,0.0388,0,0,0,0,0,0,0.0366,0.0376,0.0369,0.039,0.0407,0.0419,0.0431,0.0427,0.0423,0.042,0.0396,0.0391,0.0392,0.0367,0.0371,0.0358,0.0336,0.0335,0.0385,0.039,0.0394,0.041,0.035,0,0,0,0,0,0.0365,0.0369,0.0387,0.0402,0.0414,0.0419,0.0427,0.0432,0.0434,0.0433,0.0415,0.0394,0.0386,0.0377,0.0365,0.0356,0.0329,0.0356,0.036,0.0364,0.0371,0.0333,0.0335,0.0315,0.0315,0.0315,0,0,0.0367,0.0377,0.0376,0.0402,0.0412,0.044,0.0425,0.0449,0.0463,0.0427,0.0431,0.0413,0.0388,0.0387,0.0383,0.0368,0.0356,0.0364,0.0368,0.0373,0.0333,0.0335,0.0337,0.0315,0.0315,0.0315,0,0,0.0391,0.0391,0.0407,0.0426,0.0452,0.0457,0.0468,0.048,0.0479,0.0482,0.046,0.0453,0.0427,0.0419,0.041,0.0425,0.0384,0.0411,0.0441,0.0404,0.0406,0.0407,0.0383,0.0382,0.0407,0.0407,0.0407,0,0.0406,0.0421,0.0419,0.0453,0.0472,0.0469,0.0504,0.0505,0.0508,0.0505,0.0493,0.0465,0.0448,0.045,0.0456,0.0439,0.0406,0.0429,0.0411,0.0411,0.0411,0.0387,0.0384,0.041,0.041,0.0409,0.0409,0,0.0435,0.046,0.048,0.0511,0.0529,0.0563,0.0572,0.0577,0.0566,0.0558,0.0555,0.0532,0.0512,0.0506,0.0488,0.048,0.0454,0.0428,0.0404,0.0418,0.0391,0.0387,0.0415,0.0414,0.0413,0.0412,0,0,0.0455,0.0495,0.0502,0.0529,0.0565,0.0588,0.061,0.0627,0.0638,0.0622,0.0627,0.0613,0.0585,0.0573,0.0546,0.0518,0.0497,0.0472,0.0468,0.0459,0.0416,0.0398,0.0391,0.0457,0.0457,0.0457,0.0401,0,0.049,0.0551,0.0557,0.0617,0.0655,0.0661,0.0684,0.0692,0.0684,0.0683,0.0654,0.065,0.0613,0.0606,0.0573,0.0519,0.0488,0.0515,0.0395,0.0392,0.0382,0.0386,0.0395,0.0345,0.0397,0.0396,0.0396,0,0.0514,0.0557,0.0615,0.0675,0.0692,0.072,0.075,0.0771,0.0765,0.0758,0.0739,0.0705,0.0678,0.0639,0.0551,0.0564,0.0495,0.045,0.0446,0.0403,0.0366,0.0336,0.0336,0.0389,0.039,0.039,0.039,0,0.0515,0.0596,0.0637,0.0661,0.0725,0.0747,0.0776,0.0787,0.081,0.0801,0.0808,0.0756,0.0737,0.0647,0.0549,0.054,0.0445,0.0419,0.0342,0.034,0.0312,0.0309,0.0351,0.0351,0.0351,0.0351,0.0351,0,0.0543,0.0586,0.0644,0.0673,0.0735,0.0767,0.0816,0.0835,0.0862,0.0893,0.0842,0.0849,0.0733,0.0662,0.0563,0.0444,0.0448,0.0353,0.0323,0.0336,0.0335,0.0343,0.0342,0.0349,0.0349,0.035,0.035,0,0.054,0.0574,0.0638,0.071,0.0736,0.0778,0.0857,0.0895,0.0913,0.0953,0.0954,0.0911,0.0823,0.0704,0.0565,0.047,0.0358,0.0311,0.0343,0.0318,0.0275,0.0278,0.0223,0.0222,0.0221,0.022,0.0219,0,0.0553,0.0578,0.0654,0.0696,0.0733,0.0802,0.0855,0.0911,0.0955,0.0994,0.1015,0.095,0.091,0.0708,0.0535,0.0364,0.0342,0.0249,0.0237,0.0284,0.0261,0.0266,0.0271,0.0229,0.0229,0.0228,0.0228,0,0.0581,0.0587,0.0632,0.0709,0.0773,0.0851,0.0929,0.0977,0.1044,0.1078,0.1104,0.1078,0.0904,0.0731,0.0501,0.0381,0.0278,0.0234,0.0264,0.0263,0.0286,0.0264,0.027,0.0224,0.0224,0.0225,0.0225,0.0225,0.0593,0.0619,0.0658,0.0733,0.0808,0.0892,0.0948,0.1031,0.1108,0.1162,0.1152,0.1113,0.0946,0.0644,0.0448,0.024,0.0258,0.0175,0.0178,0.0181,0.0194,0.0214,0.0142,0.0142,0.0142,0.0142,0.0142,0,0.0604,0.0625,0.0688,0.0769,0.0841,0.0884,0.0994,0.1047,0.113,0.1181,0.1194,0.102,0.0846,0.0646,0.0346,0.0172,0.0161,0.0101,0.0133,0.0138,0.0143,0.0155,0.0091,0.0091,0.009,0.0089,0,0,0.0601,0.0644,0.0671,0.0778,0.0839,0.0931,0.0989,0.1069,0.1125,0.1158,0.1142,0.1118,0.0903,0.0671,0.0441,0.0266,0.0236,0.0221,0.0282,0.0351,0.0358,0.0205,0.0232,0,0,0,0,0]}],[{"header":{"parameterUnit":"m.s-1","parameterCategory":2,"la1":30.2991,"la2":30.254,"lo1":-89.0895,"lo2":-89.0444,"dy":0.0017,"dx":0.0017,"nx":28,"ny":28,"refTime":"2023-10-05T21:00:00:Z","depth":"4","parameterNumber":2,"parameterNumberName":"U-component_of_CURRENTS"},"data":[0,0,0,0,0,0,0,0,0,0,0,0,0,0,0,0,0,0,0,0,0,0,0,0,0,0,0,0,0,0,0,0,0,0,0,0,0,0,0,0,0,0,0,0,0,0,0,0,0,0,0,0,0,0,0,0,0,0,0.1067,0.1067,0,0.1087,0.1087,0.1087,0.1099,0.11,0.11,0.11,0.1147,0.1148,0.1149,0,0,0,0,0,0,0,0,0,0,0,0,0,0.1021,0.1021,0.1067,0.1067,0.1068,0.1087,0.1087,0.1087,0.1099,0.11,0.11,0.1101,0.1147,0.1148,0.1149,0,0,0,0,0,0,0,0,0,0,0,0,0,0.1038,0.1022,0.1067,0.1078,0.108,0.1087,0.1087,0.1087,0.1099,0.11,0.11,0.1101,0.1147,0.1148,0.1149,0.1149,0,0,0.1154,0.1154,0,0,0,0,0,0,0,0,0.1037,0.104,0.1076,0.1078,0.1079,0.1094,0.1089,0.111,0.1099,0.1089,0.11,0.1101,0.1133,0.1136,0.1134,0.1151,0.1153,0.1154,0.1155,0.1155,0.1156,0,0,0,0,0,0,0,0.1036,0.1039,0.1072,0.1077,0.1079,0.1077,0.108,0.1092,0.1106,0.109,0.1091,0.1098,0.1134,0.1133,0.1136,0.1154,0.1154,0.1155,0.1156,0.1157,0.1243,0.1245,0,0,0,0,0,0,0.104,0.1038,0.1071,0.1073,0.1062,0.1078,0.1081,0.1086,0.1106,0.111,0.1098,0.1099,0.113,0.1134,0.1137,0.1198,0.1155,0.1157,0.1158,0.1242,0.1244,0.1245,0,0,0,0,0,0,0.1039,0.1043,0.1071,0.1058,0.1062,0.1078,0.1084,0.1087,0.1108,0.1112,0.1116,0.112,0.1131,0.1135,0.1167,0.1197,0.1157,0.1159,0.124,0.1242,0.1244,0.128,0,0,0,0,0,0,0.1037,0.1042,0.1058,0.1058,0.1063,0.1086,0.1084,0.1087,0.1112,0.1114,0.1133,0.1136,0.1131,0.1165,0.1169,0.1199,0.116,0.1238,0.1241,0.1244,0.1277,0.1283,0.1289,0,0,0,0,0,0.1035,0.1047,0.1058,0.1063,0.1081,0.1087,0.1089,0.11,0.1113,0.1122,0.1139,0.1136,0.1185,0.1167,0.1171,0.1202,0.1237,0.124,0.1244,0.1275,0.1282,0.1289,0,0,0,0,0,0,0.1023,0.105,0.1062,0.1079,0.1091,0.1091,0.1106,0.1115,0.1135,0.1147,0.1149,0.1154,0.1194,0.1195,0.1175,0.1237,0.1213,0.1217,0.1236,0.1243,0.1249,0.1255,0.1161,0,0,0,0,0,0.1032,0.1059,0.107,0.1087,0.1096,0.1108,0.1118,0.1127,0.114,0.115,0.1163,0.1185,0.1207,0.1222,0.1237,0.1268,0.1279,0.1294,0.1299,0.1304,0.1314,0.1355,0.1365,0.1256,0.1256,0.1256,0,0,0.1033,0.1052,0.1067,0.1089,0.1101,0.1115,0.1115,0.1137,0.1156,0.1153,0.119,0.1205,0.122,0.1254,0.1273,0.1261,0.1341,0.1308,0.1312,0.1319,0.1359,0.137,0.1379,0.1258,0.1258,0.1257,0,0,0.1042,0.1066,0.109,0.1104,0.1132,0.1137,0.115,0.1166,0.1184,0.1217,0.1225,0.1259,0.1288,0.1303,0.1315,0.1364,0.1369,0.1376,0.1411,0.1451,0.146,0.1468,0.1495,0.1505,0.1379,0.1379,0.1379,0,0.1046,0.1071,0.1095,0.1116,0.1132,0.1151,0.1169,0.1187,0.1213,0.1238,0.1238,0.1302,0.1312,0.1359,0.1377,0.1377,0.1398,0.138,0.1458,0.1466,0.1474,0.1499,0.151,0.1381,0.1381,0.1381,0.1381,0,0.1063,0.1091,0.1104,0.1142,0.1161,0.1179,0.1205,0.1233,0.1262,0.1284,0.1344,0.1359,0.14,0.141,0.1409,0.1474,0.147,0.1458,0.1437,0.1487,0.151,0.1521,0.1384,0.1383,0.1383,0.1382,0,0,0.1057,0.1107,0.1117,0.1137,0.1177,0.119,0.1233,0.1274,0.1313,0.1352,0.1405,0.1446,0.1469,0.1485,0.1493,0.1526,0.1594,0.1522,0.1523,0.1543,0.1684,0.1558,0.1557,0.16,0.1602,0.1604,0.1677,0,0.1066,0.1105,0.1132,0.117,0.1187,0.1223,0.1259,0.1307,0.1349,0.1405,0.1448,0.1501,0.1494,0.1525,0.1559,0.1585,0.1625,0.1575,0.1637,0.1639,0.1517,0.1566,0.1611,0.1685,0.1687,0.1689,0.169,0,0.1075,0.1101,0.1139,0.1188,0.1201,0.1231,0.1298,0.1336,0.1418,0.1456,0.1522,0.1557,0.1624,0.1607,0.1687,0.1659,0.1685,0.1697,0.17,0.1577,0.1533,0.1627,0.171,0.1708,0.1707,0.1705,0.1704,0,0.1055,0.1106,0.1138,0.1154,0.1212,0.1247,0.1286,0.1362,0.1407,0.1503,0.1548,0.1625,0.1677,0.172,0.1754,0.1735,0.1831,0.1803,0.1716,0.1707,0.1782,0.1772,0.1872,0.1871,0.1871,0.1871,0.1871,0,0.104,0.1068,0.1137,0.1153,0.1199,0.1249,0.1313,0.1362,0.145,0.1511,0.1583,0.1631,0.1712,0.177,0.1787,0.178,0.1864,0.1732,0.1721,0.1795,0.1786,0.1789,0.1778,0.1874,0.1873,0.1873,0.1872,0,0.1004,0.1048,0.1092,0.1165,0.1191,0.1231,0.1321,0.1364,0.1452,0.1533,0.1572,0.1669,0.1731,0.1791,0.1863,0.181,0.1822,0.1805,0.1888,0.1879,0.1664,0.1655,0.1704,0.17,0.1697,0.1694,0.1692,0,0.0979,0.1001,0.1097,0.1124,0.116,0.1224,0.1267,0.136,0.1405,0.1536,0.1566,0.167,0.1722,0.172,0.1783,0.1806,0.1787,0.1777,0.1708,0.1664,0.1649,0.1645,0.164,0.1687,0.1686,0.1686,0.1685,0,0.0932,0.0988,0.1028,0.1089,0.114,0.1185,0.1254,0.1278,0.1387,0.1483,0.1524,0.1554,0.1619,0.165,0.1686,0.1696,0.1765,0.1743,0.1749,0.1684,0.1644,0.1632,0.1631,0.1674,0.1675,0.1676,0.1677,0,0.091,0.093,0.0998,0.104,0.1098,0.1122,0.1166,0.1213,0.1268,0.1406,0.1419,0.1516,0.1611,0.1596,0.1627,0.1625,0.1592,0.1527,0.1543,0.1556,0.1469,0.1395,0.1347,0,0,0,0,0,0.0881,0.0897,0.0935,0.0978,0.1031,0.1066,0.1144,0.1191,0.1297,0.1294,0.1352,0.1402,0.1431,0.1476,0.1445,0.1558,0.16,0.1512,0.1534,0.1613,0.1625,0.1534,0,0,0,0,0,0,0.0863,0.0901,0.0915,0.0914,0.0931,0.0979,0.1026,0.1099,0.1097,0.1209,0.1233,0.1315,0.1367,0.1444,0.142,0.1434,0.1415,0.1576,0.1571,0.1605,0.1617,0.1627,0.1538,0,0,0,0,0]},{"header":{"parameterUnit":"m.s-1","parameterCategory":2,"la1":30.2991,"la2":30.254,"lo1":-89.0895,"lo2":-89.0444,"dy":0.0017,"dx":0.0017,"nx":28,"ny":28,"refTime":"2023-10-05T21:00:00:Z","depth":"4","parameterNumber":3,"parameterNumberName":"V-component_of_CURRENTS"},"data":[0,0,0,0,0,0,0,0,0,0,0,0,0,0,0,0,0,0,0,0,0,0,0,0,0,0,0,0,0,0,0,0,0,0,0,0,0,0,0,0,0,0,0,0,0,0,0,0,0,0,0,0,0,0,0,0,0,0,0.037,0.037,0,0.0378,0.0378,0.0378,0.0385,0.0385,0.0385,0.0385,0.0373,0.0373,0.0373,0,0,0,0,0,0,0,0,0,0,0,0,0,0.0355,0.0355,0.037,0.037,0.037,0.0378,0.0378,0.0378,0.0385,0.0385,0.0385,0.0385,0.0373,0.0373,0.0373,0,0,0,0,0,0,0,0,0,0,0,0,0,0.0362,0.0356,0.037,0.0374,0.0375,0.0378,0.0378,0.0378,0.0385,0.0385,0.0385,0.0385,0.0373,0.0373,0.0372,0.0368,0,0,0.0371,0.0371,0,0,0,0,0,0,0,0,0.0362,0.0363,0.0373,0.0374,0.0374,0.038,0.0369,0.0374,0.0385,0.0381,0.0385,0.0385,0.0374,0.0373,0.0375,0.0367,0.0367,0.0371,0.037,0.037,0.037,0,0,0,0,0,0,0,0.0362,0.0363,0.0373,0.0374,0.0374,0.0374,0.0375,0.037,0.0377,0.0381,0.0382,0.0382,0.0374,0.0375,0.0375,0.0367,0.0371,0.037,0.037,0.037,0.0376,0.0376,0,0,0,0,0,0,0.036,0.0362,0.0373,0.0374,0.0368,0.0374,0.0375,0.0378,0.0377,0.0377,0.0382,0.0383,0.0376,0.0375,0.0374,0.0395,0.037,0.037,0.0369,0.0376,0.0376,0.0377,0,0,0,0,0,0,0.036,0.0361,0.0373,0.0368,0.0369,0.0374,0.0378,0.0379,0.0391,0.0378,0.0378,0.0394,0.0376,0.0375,0.0381,0.0394,0.037,0.0369,0.0375,0.0376,0.0376,0.042,0,0,0,0,0,0,0.036,0.0361,0.0368,0.0368,0.0369,0.0385,0.0378,0.0379,0.039,0.0391,0.0388,0.0386,0.0376,0.0382,0.038,0.0393,0.0369,0.0374,0.0375,0.0376,0.0418,0.0422,0.0426,0,0,0,0,0,0.0359,0.0369,0.0368,0.0369,0.0376,0.0386,0.0387,0.0391,0.0391,0.0401,0.0398,0.0387,0.0386,0.0382,0.038,0.0393,0.0374,0.0375,0.0376,0.0416,0.0422,0.0426,0,0,0,0,0,0,0.0372,0.037,0.0369,0.038,0.0386,0.0387,0.0397,0.0398,0.0405,0.0407,0.0394,0.0393,0.0402,0.0391,0.0386,0.0396,0.0378,0.0379,0.0409,0.0414,0.0418,0.0426,0.0368,0,0,0,0,0,0.0375,0.0378,0.0381,0.039,0.0396,0.0398,0.0404,0.0407,0.0409,0.0413,0.041,0.0406,0.0404,0.0404,0.04,0.0406,0.0383,0.0412,0.0416,0.042,0.0425,0.0402,0.0404,0.038,0.038,0.038,0,0,0.0381,0.0382,0.0384,0.0393,0.0398,0.0414,0.0403,0.0417,0.0431,0.041,0.043,0.0421,0.0409,0.0417,0.042,0.041,0.0412,0.0421,0.0424,0.0428,0.0403,0.0406,0.0408,0.0381,0.0381,0.0381,0,0,0.0398,0.0399,0.041,0.0419,0.0429,0.0431,0.0439,0.0447,0.0452,0.0465,0.0454,0.0456,0.0453,0.0449,0.0445,0.0468,0.0434,0.0464,0.0491,0.0469,0.0471,0.0472,0.0438,0.0436,0.0465,0.0466,0.0466,0,0.041,0.0423,0.0417,0.0436,0.0448,0.0443,0.0467,0.0471,0.048,0.0485,0.0478,0.0478,0.047,0.0478,0.0487,0.0478,0.0452,0.0475,0.0474,0.0475,0.0475,0.044,0.0437,0.0468,0.0468,0.0467,0.0467,0,0.0437,0.0452,0.0462,0.0481,0.0494,0.0513,0.0518,0.0531,0.0533,0.0533,0.0543,0.053,0.0528,0.0526,0.0514,0.0517,0.0493,0.0482,0.0463,0.0481,0.0442,0.0438,0.0471,0.047,0.047,0.0469,0,0,0.0455,0.0478,0.0482,0.05,0.0521,0.0534,0.0558,0.0575,0.059,0.059,0.0604,0.0601,0.0588,0.0582,0.0566,0.0549,0.053,0.052,0.0518,0.0487,0.0467,0.043,0.0422,0.0515,0.0514,0.0514,0.0436,0,0.0483,0.0518,0.0525,0.0566,0.0587,0.0595,0.0618,0.0631,0.0632,0.0642,0.0626,0.0631,0.061,0.0609,0.0591,0.0548,0.0523,0.0551,0.0454,0.0451,0.0416,0.0417,0.0514,0.0433,0.0432,0.0431,0.043,0,0.0509,0.0529,0.0569,0.0607,0.0619,0.0645,0.0677,0.0698,0.0704,0.0704,0.07,0.068,0.0665,0.064,0.0573,0.0589,0.0533,0.0495,0.049,0.0439,0.0407,0.0412,0.0423,0.0424,0.0424,0.0425,0.0425,0,0.0514,0.0561,0.0592,0.0606,0.0648,0.0674,0.07,0.0718,0.0739,0.0742,0.0747,0.0719,0.0705,0.0642,0.056,0.0564,0.0472,0.0465,0.0376,0.0372,0.041,0.0409,0.0411,0.0411,0.0411,0.0412,0.0412,0,0.053,0.056,0.06,0.0617,0.0667,0.0693,0.074,0.0757,0.0783,0.0804,0.078,0.0774,0.0704,0.0641,0.0566,0.0455,0.0471,0.0379,0.0352,0.0429,0.0431,0.0406,0.0407,0.0409,0.0409,0.041,0.041,0,0.0525,0.055,0.0592,0.0643,0.0668,0.0703,0.0772,0.0802,0.0822,0.0847,0.085,0.0812,0.0729,0.0641,0.053,0.0459,0.036,0.0314,0.0394,0.0372,0.0273,0.0277,0.0212,0.021,0.0208,0.0207,0.0206,0,0.0519,0.054,0.0603,0.0634,0.0662,0.0722,0.0767,0.0816,0.0844,0.0862,0.0868,0.0805,0.0762,0.0574,0.0483,0.0327,0.0304,0.0248,0.0272,0.0274,0.0253,0.026,0.0266,0.0203,0.0203,0.0202,0.0202,0,0.0511,0.0536,0.0566,0.0627,0.0682,0.0744,0.0806,0.0828,0.0878,0.09,0.0865,0.0781,0.0681,0.0553,0.0428,0.032,0.0286,0.023,0.0233,0.0256,0.0262,0.0245,0.0253,0.0196,0.0197,0.0198,0.0198,0,0.0501,0.0518,0.0558,0.0615,0.0685,0.0744,0.0782,0.0816,0.0849,0.0872,0.0854,0.0764,0.0721,0.0547,0.0434,0.0322,0.0297,0.0261,0.0262,0.0267,0.0308,0.0326,0.0255,0,0,0,0,0,0.0481,0.0499,0.0546,0.0604,0.0677,0.072,0.08,0.0834,0.0881,0.0854,0.0857,0.0763,0.0599,0.0532,0.0411,0.04,0.0275,0.0253,0.0233,0.0165,0.0172,0.0208,0,0,0,0,0,0,0.0464,0.0502,0.0528,0.0592,0.0631,0.0711,0.0763,0.0797,0.0783,0.0811,0.0724,0.0711,0.0551,0.0657,0.0398,0.0368,0.0334,0.0189,0.0186,0.0161,0.0167,0.0173,0.0212,0,0,0,0,0]}]]